Year,Month,Day,Hour,Minute,Value (Times are PST for windspeed in km/hr)
2014,09,22,00,00,7.10
2014,09,22,00,01,6.00
2014,09,22,00,02,9.40
2014,09,22,00,03,10.70
2014,09,22,00,04,13.60
2014,09,22,00,05,12.20
2014,09,22,00,06,11.30
2014,09,22,00,07,9.70
2014,09,22,00,08,17.90
2014,09,22,00,09,15.70
2014,09,22,00,10,15.10
2014,09,22,00,11,15.40
2014,09,22,00,12,12.80
2014,09,22,00,13,12.30
2014,09,22,00,14,13.90
2014,09,22,00,15,14.80
2014,09,22,00,16,12.90
2014,09,22,00,17,14.90
2014,09,22,00,18,16.30
2014,09,22,00,19,17.30
2014,09,22,00,20,20.00
2014,09,22,00,21,14.60
2014,09,22,00,22,14.80
2014,09,22,00,23,18.30
2014,09,22,00,24,12.20
2014,09,22,00,25,15.60
2014,09,22,00,26,16.20
2014,09,22,00,27,17.80
2014,09,22,00,28,15.60
2014,09,22,00,29,15.50
2014,09,22,00,30,18.90
2014,09,22,00,31,10.30
2014,09,22,00,32,14.70
2014,09,22,00,33,17.30
2014,09,22,00,34,14.60
2014,09,22,00,35,16.00
2014,09,22,00,36,12.60
2014,09,22,00,37,8.40
2014,09,22,00,38,14.20
2014,09,22,00,39,14.10
2014,09,22,00,40,16.20
2014,09,22,00,41,11.90
2014,09,22,00,42,14.50
2014,09,22,00,43,14.40
2014,09,22,00,44,16.40
2014,09,22,00,45,16.50
2014,09,22,00,46,14.40
2014,09,22,00,47,15.60
2014,09,22,00,48,16.20
2014,09,22,00,49,19.60
2014,09,22,00,50,17.60
2014,09,22,00,51,18.60
2014,09,22,00,52,19.40
2014,09,22,00,53,18.20
2014,09,22,00,54,18.30
2014,09,22,00,55,14.80
2014,09,22,00,56,11.30
2014,09,22,00,57,12.80
2014,09,22,00,58,13.20
2014,09,22,00,59,15.90
2014,09,22,01,00,13.40
2014,09,22,01,01,17.10
2014,09,22,01,02,17.80
2014,09,22,01,03,15.00
2014,09,22,01,04,15.90
2014,09,22,01,05,16.20
2014,09,22,01,06,16.70
2014,09,22,01,07,14.30
2014,09,22,01,08,15.50
2014,09,22,01,09,8.90
2014,09,22,01,10,12.10
2014,09,22,01,11,11.50
2014,09,22,01,12,14.90
2014,09,22,01,13,12.90
2014,09,22,01,14,11.50
2014,09,22,01,15,5.70
2014,09,22,01,16,10.40
2014,09,22,01,17,11.50
2014,09,22,01,18,9.70
2014,09,22,01,19,8.30
2014,09,22,01,20,16.80
2014,09,22,01,21,14.10
2014,09,22,01,22,11.20
2014,09,22,01,23,14.10
2014,09,22,01,24,17.90
2014,09,22,01,25,13.90
2014,09,22,01,26,18.60
2014,09,22,01,27,16.20
2014,09,22,01,28,18.20
2014,09,22,01,29,19.80
2014,09,22,01,30,19.20
2014,09,22,01,31,18.50
2014,09,22,01,32,17.20
2014,09,22,01,33,21.40
2014,09,22,01,34,21.10
2014,09,22,01,35,22.90
2014,09,22,01,36,19.50
2014,09,22,01,37,18.10
2014,09,22,01,38,21.20
2014,09,22,01,39,22.20
2014,09,22,01,40,18.90
2014,09,22,01,41,24.40
2014,09,22,01,42,20.60
2014,09,22,01,43,22.40
2014,09,22,01,44,21.20
2014,09,22,01,45,21.20
2014,09,22,01,46,21.70
2014,09,22,01,47,18.60
2014,09,22,01,48,22.80
2014,09,22,01,49,21.10
2014,09,22,01,50,22.80
2014,09,22,01,51,22.70
2014,09,22,01,52,24.20
2014,09,22,01,53,21.40
2014,09,22,01,54,21.70
2014,09,22,01,55,19.00
2014,09,22,01,56,19.50
2014,09,22,01,57,20.60
2014,09,22,01,58,21.30
2014,09,22,01,59,18.80
2014,09,22,02,00,18.90
2014,09,22,02,01,21.20
2014,09,22,02,02,18.20
2014,09,22,02,03,22.30
2014,09,22,02,04,17.00
2014,09,22,02,05,19.10
2014,09,22,02,06,21.00
2014,09,22,02,07,20.10
2014,09,22,02,08,19.10
2014,09,22,02,09,25.00
2014,09,22,02,10,23.40
2014,09,22,02,11,28.10
2014,09,22,02,12,25.50
2014,09,22,02,13,24.30
2014,09,22,02,14,24.60
2014,09,22,02,15,24.90
2014,09,22,02,16,24.70
2014,09,22,02,17,25.50
2014,09,22,02,18,23.40
2014,09,22,02,19,23.40
2014,09,22,02,20,24.40
2014,09,22,02,21,20.40
2014,09,22,02,22,24.40
2014,09,22,02,23,21.00
2014,09,22,02,24,23.90
2014,09,22,02,25,21.00
2014,09,22,02,26,20.40
2014,09,22,02,27,23.60
2014,09,22,02,28,21.40
2014,09,22,02,29,24.20
2014,09,22,02,30,22.20
2014,09,22,02,31,19.50
2014,09,22,02,32,18.60
2014,09,22,02,33,21.20
2014,09,22,02,34,20.90
2014,09,22,02,35,22.80
2014,09,22,02,36,19.90
2014,09,22,02,37,24.40
2014,09,22,02,38,21.20
2014,09,22,02,39,19.80
2014,09,22,02,40,18.30
2014,09,22,02,41,16.80
2014,09,22,02,42,19.70
2014,09,22,02,43,19.10
2014,09,22,02,44,20.60
2014,09,22,02,45,22.60
2014,09,22,02,46,23.90
2014,09,22,02,47,20.60
2014,09,22,02,48,24.40
2014,09,22,02,49,23.90
2014,09,22,02,50,20.20
2014,09,22,02,51,17.90
2014,09,22,02,52,13.10
2014,09,22,02,53,22.20
2014,09,22,02,54,22.30
2014,09,22,02,55,20.70
2014,09,22,02,56,21.20
2014,09,22,02,57,19.30
2014,09,22,02,58,14.90
2014,09,22,02,59,18.00
2014,09,22,03,00,16.50
2014,09,22,03,01,20.70
2014,09,22,03,02,23.20
2014,09,22,03,03,17.60
2014,09,22,03,04,18.60
2014,09,22,03,05,17.00
2014,09,22,03,06,11.90
2014,09,22,03,07,14.60
2014,09,22,03,08,19.30
2014,09,22,03,09,18.20
2014,09,22,03,10,19.60
2014,09,22,03,11,14.50
2014,09,22,03,12,18.00
2014,09,22,03,13,16.30
2014,09,22,03,14,18.20
2014,09,22,03,15,17.30
2014,09,22,03,16,11.00
2014,09,22,03,17,12.80
2014,09,22,03,18,13.40
2014,09,22,03,19,12.10
2014,09,22,03,20,16.00
2014,09,22,03,21,16.40
2014,09,22,03,22,13.70
2014,09,22,03,23,13.80
2014,09,22,03,24,15.10
2014,09,22,03,25,11.60
2014,09,22,03,26,13.90
2014,09,22,03,27,13.80
2014,09,22,03,28,17.60
2014,09,22,03,29,16.60
2014,09,22,03,30,19.70
2014,09,22,03,31,15.70
2014,09,22,03,32,13.60
2014,09,22,03,33,14.90
2014,09,22,03,34,13.70
2014,09,22,03,35,16.40
2014,09,22,03,36,11.50
2014,09,22,03,37,14.80
2014,09,22,03,38,15.60
2014,09,22,03,39,11.40
2014,09,22,03,40,12.60
2014,09,22,03,41,10.90
2014,09,22,03,42,15.60
2014,09,22,03,43,15.80
2014,09,22,03,44,16.70
2014,09,22,03,45,16.70
2014,09,22,03,46,15.60
2014,09,22,03,47,15.30
2014,09,22,03,48,15.60
2014,09,22,03,49,16.50
2014,09,22,03,50,17.90
2014,09,22,03,51,17.60
2014,09,22,03,52,14.90
2014,09,22,03,53,19.20
2014,09,22,03,54,16.20
2014,09,22,03,55,15.20
2014,09,22,03,56,14.60
2014,09,22,03,57,15.50
2014,09,22,03,58,17.10
2014,09,22,03,59,16.10
2014,09,22,04,00,11.60
2014,09,22,04,01,7.80
2014,09,22,04,02,12.30
2014,09,22,04,03,14.00
2014,09,22,04,04,9.50
2014,09,22,04,05,11.80
2014,09,22,04,06,15.60
2014,09,22,04,07,11.30
2014,09,22,04,08,10.80
2014,09,22,04,09,9.00
2014,09,22,04,10,17.20
2014,09,22,04,11,11.70
2014,09,22,04,12,13.60
2014,09,22,04,13,9.30
2014,09,22,04,14,15.00
2014,09,22,04,15,13.90
2014,09,22,04,16,12.40
2014,09,22,04,17,10.40
2014,09,22,04,18,9.40
2014,09,22,04,19,13.90
2014,09,22,04,20,12.90
2014,09,22,04,21,11.90
2014,09,22,04,22,12.90
2014,09,22,04,23,14.40
2014,09,22,04,24,5.80
2014,09,22,04,25,7.20
2014,09,22,04,26,7.20
2014,09,22,04,27,5.20
2014,09,22,04,28,3.70
2014,09,22,04,29,6.30
2014,09,22,04,30,6.20
2014,09,22,04,31,7.80
2014,09,22,04,32,9.40
2014,09,22,04,33,11.10
2014,09,22,04,34,5.40
2014,09,22,04,35,7.50
2014,09,22,04,36,8.60
2014,09,22,04,37,5.00
2014,09,22,04,38,11.00
2014,09,22,04,39,12.10
2014,09,22,04,40,12.40
2014,09,22,04,41,5.60
2014,09,22,04,42,7.60
2014,09,22,04,43,9.20
2014,09,22,04,44,10.30
2014,09,22,04,45,9.90
2014,09,22,04,46,12.70
2014,09,22,04,47,9.30
2014,09,22,04,48,6.20
2014,09,22,04,49,8.20
2014,09,22,04,50,11.30
2014,09,22,04,51,6.00
2014,09,22,04,52,6.90
2014,09,22,04,53,9.30
2014,09,22,04,54,9.90
2014,09,22,04,55,9.10
2014,09,22,04,56,8.90
2014,09,22,04,57,7.80
2014,09,22,04,58,5.90
2014,09,22,04,59,9.40
2014,09,22,05,00,9.90
2014,09,22,05,01,7.10
2014,09,22,05,02,4.00
2014,09,22,05,03,3.70
2014,09,22,05,04,6.40
2014,09,22,05,05,6.70
2014,09,22,05,06,3.90
2014,09,22,05,07,4.50
2014,09,22,05,08,4.80
2014,09,22,05,09,3.10
2014,09,22,05,10,6.90
2014,09,22,05,11,3.10
2014,09,22,05,12,3.60
2014,09,22,05,13,1.70
2014,09,22,05,14,5.80
2014,09,22,05,15,5.70
2014,09,22,05,16,9.70
2014,09,22,05,17,5.20
2014,09,22,05,18,6.10
2014,09,22,05,19,4.80
2014,09,22,05,20,8.70
2014,09,22,05,21,9.20
2014,09,22,05,22,13.00
2014,09,22,05,23,14.50
2014,09,22,05,24,12.20
2014,09,22,05,25,10.70
2014,09,22,05,26,9.10
2014,09,22,05,27,8.20
2014,09,22,05,28,10.30
2014,09,22,05,29,8.70
2014,09,22,05,30,5.70
2014,09,22,05,31,8.60
2014,09,22,05,32,8.80
2014,09,22,05,33,7.80
2014,09,22,05,34,7.10
2014,09,22,05,35,7.20
2014,09,22,05,36,10.60
2014,09,22,05,37,9.00
2014,09,22,05,38,5.60
2014,09,22,05,39,5.00
2014,09,22,05,40,7.70
2014,09,22,05,41,10.40
2014,09,22,05,42,7.40
2014,09,22,05,43,7.80
2014,09,22,05,44,6.00
2014,09,22,05,45,5.40
2014,09,22,05,46,6.00
2014,09,22,05,47,3.00
2014,09,22,05,48,3.60
2014,09,22,05,49,6.40
2014,09,22,05,50,5.60
2014,09,22,05,51,2.30
2014,09,22,05,52,1.80
2014,09,22,05,53,2.90
2014,09,22,05,54,2.60
2014,09,22,05,55,5.40
2014,09,22,05,56,4.30
2014,09,22,05,57,3.70
2014,09,22,05,58,2.30
2014,09,22,05,59,2.10
2014,09,22,06,00,2.10
2014,09,22,06,01,0.40
2014,09,22,06,02,2.20
2014,09,22,06,03,1.50
2014,09,22,06,04,0.50
2014,09,22,06,05,0.20
2014,09,22,06,06,1.50
2014,09,22,06,07,0.10
2014,09,22,06,08,0.00
2014,09,22,06,09,0.00
2014,09,22,06,10,0.00
2014,09,22,06,11,0.00
2014,09,22,06,12,0.10
2014,09,22,06,13,0.00
2014,09,22,06,14,0.40
2014,09,22,06,15,0.00
2014,09,22,06,16,0.00
2014,09,22,06,17,0.00
2014,09,22,06,18,0.00
2014,09,22,06,19,0.00
2014,09,22,06,20,0.00
2014,09,22,06,21,0.00
2014,09,22,06,22,0.00
2014,09,22,06,23,0.00
2014,09,22,06,24,0.00
2014,09,22,06,25,0.00
2014,09,22,06,26,0.00
2014,09,22,06,27,0.00
2014,09,22,06,28,1.40
2014,09,22,06,29,3.10
2014,09,22,06,30,4.10
2014,09,22,06,31,4.40
2014,09,22,06,32,4.40
2014,09,22,06,33,7.00
2014,09,22,06,34,6.20
2014,09,22,06,35,7.20
2014,09,22,06,36,4.10
2014,09,22,06,37,8.20
2014,09,22,06,38,10.30
2014,09,22,06,39,10.20
2014,09,22,06,40,8.50
2014,09,22,06,41,6.30
2014,09,22,06,42,6.10
2014,09,22,06,43,4.80
2014,09,22,06,44,5.50
2014,09,22,06,45,4.00
2014,09,22,06,46,6.50
2014,09,22,06,47,5.60
2014,09,22,06,48,6.40
2014,09,22,06,49,7.40
2014,09,22,06,50,8.70
2014,09,22,06,51,4.20
2014,09,22,06,52,0.40
2014,09,22,06,53,1.80
2014,09,22,06,54,1.80
2014,09,22,06,55,2.30
2014,09,22,06,56,2.50
2014,09,22,06,57,2.50
2014,09,22,06,58,2.80
2014,09,22,06,59,3.50
2014,09,22,07,00,2.80
2014,09,22,07,01,3.10
2014,09,22,07,02,4.60
2014,09,22,07,03,5.70
2014,09,22,07,04,5.60
2014,09,22,07,05,6.40
2014,09,22,07,06,6.40
2014,09,22,07,07,6.20
2014,09,22,07,08,5.70
2014,09,22,07,09,6.70
2014,09,22,07,10,7.10
2014,09,22,07,11,8.70
2014,09,22,07,12,4.40
2014,09,22,07,13,0.20
2014,09,22,07,14,0.30
2014,09,22,07,15,4.00
2014,09,22,07,16,1.80
2014,09,22,07,17,1.10
2014,09,22,07,18,1.20
2014,09,22,07,19,3.40
2014,09,22,07,20,5.50
2014,09,22,07,21,0.90
2014,09,22,07,22,5.10
2014,09,22,07,23,8.60
2014,09,22,07,24,11.90
2014,09,22,07,25,13.50
2014,09,22,07,26,11.00
2014,09,22,07,27,12.00
2014,09,22,07,28,9.30
2014,09,22,07,29,12.10
2014,09,22,07,30,13.40
2014,09,22,07,31,10.20
2014,09,22,07,32,7.80
2014,09,22,07,33,7.50
2014,09,22,07,34,10.30
2014,09,22,07,35,11.20
2014,09,22,07,36,11.60
2014,09,22,07,37,10.60
2014,09,22,07,38,12.60
2014,09,22,07,39,11.60
2014,09,22,07,40,11.70
2014,09,22,07,41,12.40
2014,09,22,07,42,8.00
2014,09,22,07,43,11.50
2014,09,22,07,44,6.40
2014,09,22,07,45,9.70
2014,09,22,07,46,11.50
2014,09,22,07,47,13.80
2014,09,22,07,48,11.70
2014,09,22,07,49,10.00
2014,09,22,07,50,10.20
2014,09,22,07,51,13.00
2014,09,22,07,52,11.00
2014,09,22,07,53,9.30
2014,09,22,07,54,9.60
2014,09,22,07,55,9.60
2014,09,22,07,56,9.00
2014,09,22,07,57,7.50
2014,09,22,07,58,5.10
2014,09,22,07,59,4.90
2014,09,22,08,00,5.70
2014,09,22,08,01,4.70
2014,09,22,08,02,6.80
2014,09,22,08,03,7.30
2014,09,22,08,04,5.20
2014,09,22,08,05,5.60
2014,09,22,08,06,5.80
2014,09,22,08,07,2.40
2014,09,22,08,08,4.70
2014,09,22,08,09,5.60
2014,09,22,08,10,7.70
2014,09,22,08,11,8.10
2014,09,22,08,12,7.20
2014,09,22,08,13,6.90
2014,09,22,08,14,5.10
2014,09,22,08,15,6.20
2014,09,22,08,16,6.70
2014,09,22,08,17,5.80
2014,09,22,08,18,5.40
2014,09,22,08,19,5.10
2014,09,22,08,20,6.50
2014,09,22,08,21,9.20
2014,09,22,08,22,8.60
2014,09,22,08,23,10.10
2014,09,22,08,24,7.60
2014,09,22,08,25,9.50
2014,09,22,08,26,11.60
2014,09,22,08,27,9.70
2014,09,22,08,28,11.10
2014,09,22,08,29,13.00
2014,09,22,08,30,11.00
2014,09,22,08,31,15.60
2014,09,22,08,32,11.60
2014,09,22,08,33,16.60
2014,09,22,08,34,17.20
2014,09,22,08,35,16.20
2014,09,22,08,36,17.70
2014,09,22,08,37,17.80
2014,09,22,08,38,17.20
2014,09,22,08,39,16.40
2014,09,22,08,40,17.20
2014,09,22,08,41,11.00
2014,09,22,08,42,7.80
2014,09,22,08,43,8.50
2014,09,22,08,44,6.40
2014,09,22,08,45,6.40
2014,09,22,08,46,6.40
2014,09,22,08,47,6.40
2014,09,22,08,48,6.40
2014,09,22,08,49,6.40
2014,09,22,08,50,6.40
2014,09,22,08,51,6.40
2014,09,22,08,52,6.40
2014,09,22,08,53,6.40
2014,09,22,10,01,3.80
2014,09,22,10,02,2.50
2014,09,22,10,03,1.20
2014,09,22,10,04,1.30
2014,09,22,10,05,1.50
2014,09,22,10,06,2.00
2014,09,22,10,07,2.40
2014,09,22,10,08,1.60
2014,09,22,10,09,1.00
2014,09,22,10,10,0.70
2014,09,22,10,11,2.10
2014,09,22,10,12,0.90
2014,09,22,10,13,2.60
2014,09,22,10,14,6.10
2014,09,22,10,15,4.30
2014,09,22,10,16,3.70
2014,09,22,10,17,1.60
2014,09,22,10,18,1.20
2014,09,22,10,19,1.80
2014,09,22,10,20,0.80
2014,09,22,10,21,1.10
2014,09,22,10,22,0.70
2014,09,22,10,23,2.90
2014,09,22,10,24,2.80
2014,09,22,10,25,1.90
2014,09,22,10,26,3.40
2014,09,22,10,27,2.60
2014,09,22,10,28,4.90
2014,09,22,10,29,4.10
2014,09,22,10,30,5.10
2014,09,22,10,31,5.90
2014,09,22,10,32,4.20
2014,09,22,10,33,3.80
2014,09,22,10,34,4.60
2014,09,22,10,35,5.10
2014,09,22,10,36,0.80
2014,09,22,10,37,3.00
2014,09,22,10,38,2.00
2014,09,22,10,39,3.10
2014,09,22,10,40,4.20
2014,09,22,10,41,1.80
2014,09,22,10,42,6.00
2014,09,22,10,43,5.00
2014,09,22,10,44,4.50
2014,09,22,10,45,5.20
2014,09,22,10,46,5.60
2014,09,22,10,47,3.30
2014,09,22,10,48,7.90
2014,09,22,10,49,5.60
2014,09,22,10,50,4.90
2014,09,22,10,51,6.80
2014,09,22,10,52,6.00
2014,09,22,10,53,3.60
2014,09,22,10,54,3.10
2014,09,22,10,55,3.50
2014,09,22,10,56,3.30
2014,09,22,10,57,2.60
2014,09,22,10,58,2.90
2014,09,22,10,59,4.30
2014,09,22,11,00,3.10
2014,09,22,11,01,1.50
2014,09,22,11,02,0.40
2014,09,22,11,03,2.30
2014,09,22,11,04,1.20
2014,09,22,11,05,2.00
2014,09,22,11,06,1.80
2014,09,22,11,07,1.70
2014,09,22,11,08,0.80
2014,09,22,11,09,1.30
2014,09,22,11,10,2.00
2014,09,22,11,11,0.00
2014,09,22,11,12,0.30
2014,09,22,11,13,4.00
2014,09,22,11,14,1.10
2014,09,22,11,15,2.80
2014,09,22,11,16,1.20
2014,09,22,11,17,0.10
2014,09,22,11,18,2.60
2014,09,22,11,19,1.20
2014,09,22,11,20,1.30
2014,09,22,11,21,1.10
2014,09,22,11,22,2.20
2014,09,22,11,23,4.60
2014,09,22,11,24,5.50
2014,09,22,11,25,5.50
2014,09,22,11,26,8.00
2014,09,22,11,27,3.40
2014,09,22,11,28,5.70
2014,09,22,11,29,4.80
2014,09,22,11,30,7.60
2014,09,22,11,31,8.30
2014,09,22,11,32,4.10
2014,09,22,11,33,8.30
2014,09,22,11,34,5.90
2014,09,22,11,35,7.40
2014,09,22,11,36,6.50
2014,09,22,11,37,9.10
2014,09,22,11,38,9.60
2014,09,22,11,39,6.20
2014,09,22,11,40,5.30
2014,09,22,11,41,6.70
2014,09,22,11,42,6.00
2014,09,22,11,43,10.20
2014,09,22,11,44,7.40
2014,09,22,11,45,8.40
2014,09,22,11,46,8.10
2014,09,22,11,47,6.60
2014,09,22,11,48,8.60
2014,09,22,11,49,9.20
2014,09,22,11,50,7.80
2014,09,22,11,51,8.30
2014,09,22,11,52,7.70
2014,09,22,11,53,7.50
2014,09,22,11,54,5.70
2014,09,22,11,55,1.50
2014,09,22,11,56,2.80
2014,09,22,11,57,6.10
2014,09,22,11,58,7.70
2014,09,22,11,59,7.70
2014,09,22,12,00,4.30
2014,09,22,12,01,6.40
2014,09,22,12,02,5.10
2014,09,22,12,03,3.90
2014,09,22,12,04,7.10
2014,09,22,12,05,8.70
2014,09,22,12,06,7.80
2014,09,22,12,07,4.10
2014,09,22,12,08,5.90
2014,09,22,12,09,8.90
2014,09,22,12,10,8.70
2014,09,22,12,11,11.30
2014,09,22,12,12,9.00
2014,09,22,12,13,9.60
2014,09,22,12,14,10.40
2014,09,22,12,15,10.30
2014,09,22,12,16,6.10
2014,09,22,12,17,8.00
2014,09,22,12,18,6.10
2014,09,22,12,19,9.20
2014,09,22,12,20,6.60
2014,09,22,12,21,5.40
2014,09,22,12,22,6.80
2014,09,22,12,23,4.40
2014,09,22,12,24,4.80
2014,09,22,12,25,4.30
2014,09,22,12,26,5.50
2014,09,22,12,27,4.30
2014,09,22,12,28,7.30
2014,09,22,12,29,6.80
2014,09,22,12,30,6.70
2014,09,22,12,31,6.00
2014,09,22,12,32,6.30
2014,09,22,12,33,5.50
2014,09,22,12,34,6.30
2014,09,22,12,35,8.90
2014,09,22,12,36,8.60
2014,09,22,12,37,5.70
2014,09,22,12,38,5.80
2014,09,22,12,39,6.00
2014,09,22,12,40,4.60
2014,09,22,12,41,6.40
2014,09,22,12,42,6.30
2014,09,22,12,43,7.20
2014,09,22,12,44,5.70
2014,09,22,12,45,7.30
2014,09,22,12,46,8.10
2014,09,22,12,47,5.40
2014,09,22,12,48,5.30
2014,09,22,12,49,5.40
2014,09,22,12,50,9.70
2014,09,22,12,51,7.00
2014,09,22,12,52,5.10
2014,09,22,12,53,2.10
2014,09,22,12,54,9.00
2014,09,22,12,55,4.90
2014,09,22,12,56,6.70
2014,09,22,12,57,7.20
2014,09,22,12,58,2.90
2014,09,22,12,59,7.90
2014,09,22,13,00,2.70
2014,09,22,13,01,2.80
2014,09,22,13,02,4.40
2014,09,22,13,03,5.20
2014,09,22,13,04,6.50
2014,09,22,13,05,5.50
2014,09,22,13,06,8.20
2014,09,22,13,07,9.30
2014,09,22,13,08,9.70
2014,09,22,13,09,6.40
2014,09,22,13,10,8.30
2014,09,22,13,11,9.50
2014,09,22,13,12,8.30
2014,09,22,13,13,11.70
2014,09,22,13,14,9.40
2014,09,22,13,15,9.30
2014,09,22,13,16,4.50
2014,09,22,13,17,6.40
2014,09,22,13,18,4.80
2014,09,22,13,19,6.80
2014,09,22,13,20,8.60
2014,09,22,13,21,6.30
2014,09,22,13,22,8.60
2014,09,22,13,23,6.60
2014,09,22,13,24,7.60
2014,09,22,13,25,7.10
2014,09,22,13,26,6.10
2014,09,22,13,27,6.80
2014,09,22,13,28,7.80
2014,09,22,13,29,9.80
2014,09,22,13,30,8.50
2014,09,22,13,31,8.40
2014,09,22,13,32,7.30
2014,09,22,13,33,4.90
2014,09,22,13,34,7.20
2014,09,22,13,35,6.00
2014,09,22,13,36,6.50
2014,09,22,13,37,3.60
2014,09,22,13,38,5.70
2014,09,22,13,39,6.60
2014,09,22,13,40,5.70
2014,09,22,13,41,5.60
2014,09,22,13,42,7.00
2014,09,22,13,43,6.40
2014,09,22,13,44,5.80
2014,09,22,13,45,4.80
2014,09,22,13,46,7.10
2014,09,22,13,47,3.60
2014,09,22,13,48,3.30
2014,09,22,13,49,3.80
2014,09,22,13,50,5.80
2014,09,22,13,51,3.60
2014,09,22,13,52,1.70
2014,09,22,13,53,6.20
2014,09,22,13,54,3.60
2014,09,22,13,55,5.60
2014,09,22,13,56,7.10
2014,09,22,13,57,6.40
2014,09,22,13,58,9.30
2014,09,22,13,59,6.30
2014,09,22,14,00,5.50
2014,09,22,14,01,3.20
2014,09,22,14,02,2.70
2014,09,22,14,03,2.30
2014,09,22,14,04,6.40
2014,09,22,14,05,5.40
2014,09,22,14,06,6.00
2014,09,22,14,07,5.10
2014,09,22,14,08,1.30
2014,09,22,14,09,0.30
2014,09,22,14,10,1.80
2014,09,22,14,11,2.30
2014,09,22,14,12,7.10
2014,09,22,14,13,2.10
2014,09,22,14,14,4.30
2014,09,22,14,15,5.90
2014,09,22,14,16,7.80
2014,09,22,14,17,4.50
2014,09,22,14,18,7.30
2014,09,22,14,19,3.30
2014,09,22,14,20,3.70
2014,09,22,14,21,3.90
2014,09,22,14,22,5.00
2014,09,22,14,23,3.70
2014,09,22,14,24,7.50
2014,09,22,14,25,5.50
2014,09,22,14,26,6.00
2014,09,22,14,27,5.10
2014,09,22,14,28,5.50
2014,09,22,14,29,6.70
2014,09,22,14,30,7.30
2014,09,22,14,31,4.00
2014,09,22,14,32,3.80
2014,09,22,14,33,4.80
2014,09,22,14,34,5.10
2014,09,22,14,35,5.40
2014,09,22,14,36,3.90
2014,09,22,14,37,4.00
2014,09,22,14,38,3.40
2014,09,22,14,39,3.50
2014,09,22,14,40,5.50
2014,09,22,14,41,5.00
2014,09,22,14,42,1.50
2014,09,22,14,43,5.20
2014,09,22,14,44,3.20
2014,09,22,14,45,1.20
2014,09,22,14,46,0.70
2014,09,22,14,47,1.80
2014,09,22,14,48,6.30
2014,09,22,14,49,5.20
2014,09,22,14,50,5.70
2014,09,22,14,51,4.00
2014,09,22,14,52,6.30
2014,09,22,14,53,5.70
2014,09,22,14,54,5.30
2014,09,22,14,55,2.70
2014,09,22,14,56,1.40
2014,09,22,14,57,0.10
2014,09,22,14,58,1.00
2014,09,22,14,59,6.20
2014,09,22,15,00,5.80
2014,09,22,15,01,5.80
2014,09,22,15,02,3.80
2014,09,22,15,03,5.70
2014,09,22,15,04,5.00
2014,09,22,15,05,2.80
2014,09,22,15,06,2.80
2014,09,22,15,07,3.90
2014,09,22,15,08,7.30
2014,09,22,15,09,6.50
2014,09,22,15,10,6.10
2014,09,22,15,11,1.70
2014,09,22,15,12,0.20
2014,09,22,15,13,2.40
2014,09,22,15,14,4.80
2014,09,22,15,15,8.50
2014,09,22,15,16,3.40
2014,09,22,15,17,4.10
2014,09,22,15,18,6.40
2014,09,22,15,19,2.50
2014,09,22,15,20,1.50
2014,09,22,15,21,1.20
2014,09,22,15,22,3.10
2014,09,22,15,23,2.30
2014,09,22,15,24,0.00
2014,09,22,15,25,0.70
2014,09,22,15,26,0.60
2014,09,22,15,27,2.50
2014,09,22,15,28,1.80
2014,09,22,15,29,1.50
2014,09,22,15,30,1.60
2014,09,22,15,31,1.60
2014,09,22,15,32,0.00
2014,09,22,15,33,0.50
2014,09,22,15,34,2.30
2014,09,22,15,35,0.00
2014,09,22,15,36,1.00
2014,09,22,15,37,2.20
2014,09,22,15,38,3.50
2014,09,22,15,39,4.40
2014,09,22,15,40,2.80
2014,09,22,15,41,5.70
2014,09,22,15,42,4.40
2014,09,22,15,43,4.40
2014,09,22,15,44,3.90
2014,09,22,15,45,4.10
2014,09,22,15,46,3.20
2014,09,22,15,47,2.90
2014,09,22,15,48,1.90
2014,09,22,15,49,0.10
2014,09,22,15,50,2.00
2014,09,22,15,51,3.70
2014,09,22,15,52,4.80
2014,09,22,15,53,4.10
2014,09,22,15,54,6.40
2014,09,22,15,55,6.40
2014,09,22,15,56,4.50
2014,09,22,15,57,1.00
2014,09,22,15,58,3.30
2014,09,22,15,59,3.80
2014,09,22,16,00,1.40
2014,09,22,16,01,2.30
2014,09,22,16,02,1.80
2014,09,22,16,03,4.20
2014,09,22,16,04,4.80
2014,09,22,16,05,3.70
2014,09,22,16,06,5.20
2014,09,22,16,07,0.80
2014,09,22,16,08,2.30
2014,09,22,16,09,3.20
2014,09,22,16,10,2.40
2014,09,22,16,11,0.70
2014,09,22,16,12,1.30
2014,09,22,16,13,1.10
2014,09,22,16,14,2.90
2014,09,22,16,15,0.60
2014,09,22,16,16,2.00
2014,09,22,16,17,3.60
2014,09,22,16,18,1.20
2014,09,22,16,19,0.90
2014,09,22,16,20,1.10
2014,09,22,16,21,3.40
2014,09,22,16,22,6.10
2014,09,22,16,23,0.70
2014,09,22,16,24,4.90
2014,09,22,16,25,2.80
2014,09,22,16,26,4.70
2014,09,22,16,27,2.50
2014,09,22,16,28,2.50
2014,09,22,16,29,1.20
2014,09,22,16,30,0.70
2014,09,22,16,31,0.00
2014,09,22,16,32,3.00
2014,09,22,16,33,1.30
2014,09,22,16,34,3.20
2014,09,22,16,35,3.00
2014,09,22,16,36,3.70
2014,09,22,16,37,3.10
2014,09,22,16,38,3.60
2014,09,22,16,39,5.40
2014,09,22,16,40,3.10
2014,09,22,16,41,3.80
2014,09,22,16,42,4.00
2014,09,22,16,43,5.00
2014,09,22,16,44,4.40
2014,09,22,16,45,3.50
2014,09,22,16,46,1.70
2014,09,22,16,47,1.20
2014,09,22,16,48,1.00
2014,09,22,16,49,5.10
2014,09,22,16,50,4.50
2014,09,22,16,51,3.10
2014,09,22,16,52,1.50
2014,09,22,16,53,5.30
2014,09,22,16,54,6.40
2014,09,22,16,55,1.00
2014,09,22,16,56,3.00
2014,09,22,16,57,5.90
2014,09,22,16,58,4.90
2014,09,22,16,59,2.50
2014,09,22,17,00,2.80
2014,09,22,17,01,1.50
2014,09,22,17,02,2.50
2014,09,22,17,03,4.90
2014,09,22,17,04,4.00
2014,09,22,17,05,4.80
2014,09,22,17,06,3.00
2014,09,22,17,07,0.60
2014,09,22,17,08,1.40
2014,09,22,17,09,3.40
2014,09,22,17,10,2.30
2014,09,22,17,11,2.70
2014,09,22,17,12,3.70
2014,09,22,17,13,3.10
2014,09,22,17,14,3.20
2014,09,22,17,15,6.20
2014,09,22,17,16,4.10
2014,09,22,17,17,4.70
2014,09,22,17,18,5.40
2014,09,22,17,19,5.50
2014,09,22,17,20,6.20
2014,09,22,17,21,2.30
2014,09,22,17,22,3.20
2014,09,22,17,23,6.00
2014,09,22,17,24,3.20
2014,09,22,17,25,6.30
2014,09,22,17,26,5.90
2014,09,22,17,27,2.80
2014,09,22,17,28,3.40
2014,09,22,17,29,5.50
2014,09,22,17,30,4.30
2014,09,22,17,31,3.50
2014,09,22,17,32,4.20
2014,09,22,17,33,2.40
2014,09,22,17,34,1.20
2014,09,22,17,35,1.30
2014,09,22,17,36,1.90
2014,09,22,17,37,0.20
2014,09,22,17,38,3.40
2014,09,22,17,39,1.00
2014,09,22,17,40,1.00
2014,09,22,17,41,0.40
2014,09,22,17,42,3.70
2014,09,22,17,43,1.80
2014,09,22,17,44,2.10
2014,09,22,17,45,2.70
2014,09,22,17,46,1.20
2014,09,22,17,47,2.60
2014,09,22,17,48,2.10
2014,09,22,17,49,1.10
2014,09,22,17,50,1.80
2014,09,22,17,51,2.30
2014,09,22,17,52,0.00
2014,09,22,17,53,0.00
2014,09,22,17,54,1.70
2014,09,22,17,55,0.20
2014,09,22,17,56,0.20
2014,09,22,17,57,0.00
2014,09,22,17,58,0.90
2014,09,22,17,59,1.10
2014,09,22,18,00,2.60
2014,09,22,18,01,1.40
2014,09,22,18,02,1.30
2014,09,22,18,03,1.80
2014,09,22,18,04,1.20
2014,09,22,18,05,0.20
2014,09,22,18,06,0.30
2014,09,22,18,07,0.70
2014,09,22,18,08,2.20
2014,09,22,18,09,2.40
2014,09,22,18,10,1.90
2014,09,22,18,11,0.60
2014,09,22,18,12,1.50
2014,09,22,18,13,2.60
2014,09,22,18,14,0.10
2014,09,22,18,15,1.60
2014,09,22,18,16,2.80
2014,09,22,18,17,2.60
2014,09,22,18,18,2.80
2014,09,22,18,19,3.40
2014,09,22,18,20,3.00
2014,09,22,18,21,2.40
2014,09,22,18,22,1.90
2014,09,22,18,23,0.30
2014,09,22,18,24,0.10
2014,09,22,18,25,1.00
2014,09,22,18,26,0.20
2014,09,22,18,27,0.10
2014,09,22,18,28,0.00
2014,09,22,18,29,0.00
2014,09,22,18,30,0.00
2014,09,22,18,31,0.00
2014,09,22,18,32,0.20
2014,09,22,18,33,0.90
2014,09,22,18,34,1.50
2014,09,22,18,35,2.10
2014,09,22,18,36,1.80
2014,09,22,18,37,0.90
2014,09,22,18,38,1.60
2014,09,22,18,39,0.00
2014,09,22,18,40,0.00
2014,09,22,18,41,0.00
2014,09,22,18,42,0.00
2014,09,22,18,43,0.00
2014,09,22,18,44,0.00
2014,09,22,18,45,0.00
2014,09,22,18,46,0.00
2014,09,22,18,47,0.00
2014,09,22,18,48,0.00
